FW1477 Weather Reports


time (UTC)temp
C
wind
direction
speed
KPH
gust
KPH
rain 1hr
cm
rain 24hr
cm
rain mn
cm
humidity
%
barometer
mb
20260508050016 19 270 17.7 32.2 0.00 0.00 0.00 34 1017.0
20260508045015 19 270 20.9 37.0 0.00 0.00 0.00 34 1016.8
20260508044015 19 270 19.3 37.0 0.00 0.00 0.00 33 1016.7
20260508043016 19 270 17.7 33.8 0.00 0.00 0.00 33 1016.7
20260508042015 20 270 17.7 35.4 0.00 0.00 0.00 32 1016.8
20260508041016 20 270 20.9 33.8 0.00 0.00 0.00 32 1016.7
20260508040015 20 270 19.3 32.2 0.00 0.00 0.00 32 1016.7
20260508035016 20 270 20.9 33.8 0.00 0.00 0.00 31 1016.5
20260508034015 20 270 22.5 38.6 0.00 0.00 0.00 31 1016.9
20260508033015 20 270 19.3 37.0 0.00 0.00 0.00 31 1016.8
20260508032015 20 270 20.9 40.2 0.00 0.00 0.00 30 1016.6
20260508031016 21 270 22.5 43.5 0.00 0.00 0.00 30 1016.4
20260508030016 21 270 20.9 40.2 0.00 0.00 0.00 30 1016.8
20260508025015 22 270 16.1 30.6 0.00 0.00 0.00 30 1016.7
20260508024016 22 270 20.9 40.2 0.00 0.00 0.00 30 1016.5
20260508023015 22 270 6.4 29.0 0.00 0.00 0.00 29 1016.7
20260508022055 22 0.0 0.0 0.00 0.00 0.00 28 1016.6
20260508021016 23 0.0 0.0 0.00 0.00 0.00 27 1016.4
20260508020035 23 0.0 0.0 0.00 0.00 0.00 26 1016.1
20260508015015 23 0.0 0.0 0.00 0.00 0.00 25 1016.4
20260508014015 24 0.0 0.0 0.00 0.00 0.00 24 1016.2
20260508013016 25 0.0 0.0 0.00 0.00 0.00 24 1016.1
20260508012015 25 0.0 0.0 0.00 0.00 0.00 23 1016.5
20260508011016 25 0.0 0.0 0.00 0.00 0.00 23 1016.4
20260508010015 26 0.0 0.0 0.00 0.00 0.00 22 1016.6
20260508005017 26 0.0 0.0 0.00 0.00 0.00 21 1016.5
20260508004036 26 0.0 0.0 0.00 0.00 0.00 21 1016.4
20260508003017 26 0.0 0.0 0.00 0.00 0.00 21 1016.3
20260508002017 26 0.0 0.0 0.00 0.00 0.00 20 1016.2
20260508001017 27 0.0 0.0 0.00 0.00 0.00 20 1016.5
20260508000018 27 0.0 0.0 0.00 0.00 0.00 19 1016.4
20260507235017 27 0.0 0.0 0.00 0.00 0.00 19 1016.3
20260507234017 27 0.0 0.0 0.00 0.00 0.00 18 1016.3
20260507233017 28 0.0 0.0 0.00 0.00 0.00 18 1016.6
20260507232017 28 0.0 0.0 0.00 0.00 0.00 17 1016.1
20260507231016 28 0.0 0.0 0.00 0.00 0.00 17 1016.5
20260507230017 28 0.0 0.0 0.00 0.00 0.00 16 1016.5
20260507225018 28 0.0 0.0 0.00 0.00 0.00 15 1016.4
20260507224037 28 0.0 0.0 0.00 0.00 0.00 16 1016.5
20260507223016 28 0.0 0.0 0.00 0.00 0.00 15 1016.4
20260507222016 28 0.0 0.0 0.00 0.00 0.00 16 1016.5
20260507221017 29 0.0 0.0 0.00 0.00 0.00 15 1017.2
20260507220017 29 0.0 0.0 0.00 0.00 0.00 15 1016.6
20260507215017 28 0.0 0.0 0.00 0.00 0.00 14 1016.5
20260507214017 28 0.0 0.0 0.00 0.00 0.00 15 1016.7
20260507213016 30 0.0 0.0 0.00 0.00 0.00 12 1017.0
20260507212016 28 0.0 0.0 0.00 0.00 0.00 15 1016.8
20260507211021 29 0.0 0.0 0.00 0.00 0.00 15 1017.3
20260507210016 29 0.0 0.0 0.00 0.00 0.00 13 1017.4
20260507205016 29 0.0 0.0 0.00 0.00 0.00 14 1017.7
20260507204057 30 0.0 0.0 0.00 0.00 0.00 12 1017.7
20260507203016 29 0.0 0.0 0.00 0.00 0.00 12 1018.0
20260507202016 28 0.0 0.0 0.00 0.00 0.00 12 1017.5
20260507201016 29 0.0 0.0 0.00 0.00 0.00 13 1018.1
20260507200016 29 0.0 0.0 0.00 0.00 0.00 12 1018.2
20260507195016 29 0.0 0.0 0.00 0.00 0.00 14 1018.3
20260507194016 29 0.0 0.0 0.00 0.00 0.00 14 1018.3
20260507193017 28 0.0 0.0 0.00 0.00 0.00 14 1018.2
20260507192016 28 0.0 0.0 0.00 0.00 0.00 15 1018.2
20260507191016 28 0.0 0.0 0.00 0.00 0.00 15 1018.3
20260507190016 28 0.0 0.0 0.00 0.00 0.00 15 1018.6
20260507185036 27 0.0 0.0 0.00 0.00 0.00 16 1018.2
20260507184036 27 0.0 0.0 0.00 0.00 0.00 16 1018.5
20260507183016 27 0.0 0.0 0.00 0.00 0.00 16 1018.7
20260507182037 27 0.0 0.0 0.00 0.00 0.00 16 1018.9
20260507181016 27 0.0 0.0 0.00 0.00 0.00 16 1018.7
20260507180016 26 0.0 0.0 0.00 0.00 0.00 16 1018.9
20260507175016 26 0.0 0.0 0.00 0.00 0.00 16 1019.0
20260507174016 26 0.0 0.0 0.00 0.00 0.00 16 1019.3
20260507173037 25 0.0 0.0 0.00 0.00 0.00 16 1019.1
20260507172016 26 0.0 0.0 0.00 0.00 0.00 15 1019.6
20260507171016 26 0.0 0.0 0.00 0.00 0.00 15 1019.8
20260507170016 25 0.0 0.0 0.00 0.00 0.00 14 1019.4
20260507165016 25 0.0 0.0 0.00 0.00 0.00 14 1019.6
20260507164016 23 0.0 0.0 0.00 0.00 0.00 14 1019.3
20260507163015 23 0.0 0.0 0.00 0.00 0.00 14 1019.4
20260507162015 22 0.0 0.0 0.00 0.00 0.00 14 1019.1
20260507161016 22 0.0 0.0 0.00 0.00 0.00 14 1018.8
20260507160015 21 0.0 0.0 0.00 0.00 0.00 15 1018.9
20260507155016 21 0.0 0.0 0.00 0.00 0.00 16 1018.5
20260507154016 20 0.0 0.0 0.00 0.00 0.00 18 1018.6
20260507153015 20 0.0 0.0 0.00 0.00 0.00 19 1018.2
20260507152036 19 0.0 0.0 0.00 0.00 0.00 21 1017.8
20260507151016 18 0.0 3.2 0.00 0.00 0.00 22 1017.8
20260507150015 18 0.0 3.2 0.00 0.00 0.00 22 1017.8
20260507145035 17 0.0 0.0 0.00 0.00 0.00 23 1017.3
20260507144015 17 0.0 8.0 0.00 0.00 0.00 24 1017.4
20260507143015 17 270 1.6 9.7 0.00 0.00 0.00 25 1017.2
20260507142015 17 270 3.2 12.9 0.00 0.00 0.00 25 1017.1
20260507141016 17 270 4.8 14.5 0.00 0.00 0.00 25 1016.5
20260507140015 17 270 1.6 14.5 0.00 0.00 0.00 24 1016.8
20260507135035 17 0.0 0.0 0.00 0.00 0.00 23 1016.7
20260507134015 17 0.0 8.0 0.00 0.00 0.00 25 1016.7
20260507133036 16 293 4.8 16.1 0.00 0.00 0.00 26 1016.0
20260507132017 16 0.0 0.0 0.00 0.00 0.00 26 1016.0
20260507131017 16 293 3.2 9.7 0.00 0.00 0.00 28 1015.9
20260507130018 16 293 6.4 16.1 0.00 0.00 0.00 28 1015.8
20260507125017 16 293 9.7 16.1 0.00 0.00 0.00 28 1015.7
20260507124017 16 293 4.8 14.5 0.00 0.00 0.00 29 1015.0
20260507123015 15 0.0 9.7 0.00 0.00 0.00 30 1014.8
20260507122017 15 293 8.0 16.1 0.00 0.00 0.00 32 1014.7
20260507121017 15 270 1.6 14.5 0.00 0.00 0.00 31 1014.7
20260507120037 15 0.0 8.0 0.00 0.00 0.00 32 1014.7
20260507115017 15 248 8.0 16.1 0.00 0.00 0.00 31 1014.7
20260507114017 16 248 1.6 9.7 0.00 0.00 0.00 30 1015.0
20260507113017 16 0.0 11.3 0.00 0.00 0.00 29 1014.9
20260507112016 16 0.0 11.3 0.00 0.00 0.00 29 1014.9
20260507111018 16 0.0 0.0 0.00 0.00 0.00 29 1014.9
20260507110016 15 248 1.6 6.4 0.00 0.00 0.00 30 1014.5
20260507105016 15 248 1.6 8.0 0.00 0.00 0.00 31 1014.5
20260507104017 16 0.0 0.0 0.00 0.00 0.00 30 1015.2
20260507103017 16 0.0 0.0 0.00 0.00 0.00 28 1015.1
20260507102016 16 248 3.2 9.7 0.00 0.00 0.00 28 1015.0
20260507101037 16 248 1.6 9.7 0.00 0.00 0.00 29 1015.0
20260507100017 16 248 1.6 9.7 0.00 0.00 0.00 32 1015.1
20260507095016 17 248 4.8 12.9 0.00 0.00 0.00 29 1015.5
20260507094016 17 248 3.2 12.9 0.00 0.00 0.00 29 1015.5
20260507093017 17 248 4.8 11.3 0.00 0.00 0.00 28 1015.6
20260507092017 17 248 1.6 12.9 0.00 0.00 0.00 30 1015.5
20260507091016 17 248 3.2 12.9 0.00 0.00 0.00 32 1015.5
20260507090058 17 248 4.8 9.7 0.00 0.00 0.00 32 1015.7
20260507085016 17 248 1.6 11.3 0.00 0.00 0.00 32 1015.8
20260507084016 17 0.0 0.0 0.00 0.00 0.00 31 1015.9
20260507083017 17 248 1.6 9.7 0.00 0.00 0.00 30 1016.0
20260507082016 17 248 4.8 11.3 0.00 0.00 0.00 30 1016.2
20260507081016 17 248 1.6 9.7 0.00 0.00 0.00 30 1016.4
20260507080016 17 0.0 8.0 0.00 0.00 0.00 30 1016.3
20260507075017 17 248 1.6 9.7 0.00 0.00 0.00 30 1016.4
20260507074016 18 248 4.8 9.7 0.00 0.00 0.00 29 1017.0
20260507073016 18 248 4.8 11.3 0.00 0.00 0.00 29 1017.2
20260507072016 18 248 3.2 9.7 0.00 0.00 0.00 29 1017.2
20260507071017 18 248 1.6 8.0 0.00 0.00 0.00 28 1017.2
20260507070016 18 248 1.6 8.0 0.00 0.00 0.00 28 1017.2
20260507065016 19 248 1.6 8.0 0.00 0.00 0.00 28 1017.1
20260507064016 19 248 1.6 9.7 0.00 0.00 0.00 28 1017.5
20260507063016 19 248 1.6 9.7 0.00 0.00 0.00 28 1017.7
20260507062016 19 0.0 3.2 0.00 0.00 0.00 27 1017.8
20260507061016 20 0.0 0.0 0.00 0.00 0.00 27 1017.9
20260507060017 20 0.0 0.0 0.00 0.00 0.00 27 1018.0
20260507055017 20 0.0 0.0 0.00 0.00 0.00 27 1018.0
20260507054016 20 0.0 0.0 0.00 0.00 0.00 26 1018.1
20260507053016 20 0.0 0.0 0.00 0.00 0.00 26 1018.0
20260507052017 20 0.0 0.0 0.00 0.00 0.00 26 1018.1
20260507051016 20 0.0 6.4 0.00 0.00 0.00 26 1018.6